User: anonymous   Login
Location: Newark
(53.3867°N, 14.6147°E)
Time: 09:38:31
(UTC+00:00)
Language:

Envisat - Orbit

View from above orbital plane
View from above orbital plane
View from above satellite
View from above satellite

Ground track
Ground track

The orbit data is extracted from the following two-line orbital elements,

1 27386U 02009A   21167.95881716  .00000043  00000-0  27584-4 0  9996
2 27386  98.1483 162.0414 0001269  90.4218 323.4639 14.38030021 10936
Epoch (UTC): 16 June 2021 23:00:41
Eccentricity: 0.0001269
inclination: 98.1483°
perigee height: 764 km
apogee height: 766 km
right ascension of ascending node: 162.0414°
argument of perigee: 90.4218°
revolutions per day: 14.38030021
mean anomaly at epoch: 323.4639°
orbit number at epoch: 1093

The dashed part of the orbit path shows where the satellite is in the earth's shadow,  

DLR